Location: Monroe
(41.3286°N, 74.1872°W)
Time: 19:49:41
(UTC+00:00)

ARIANE 6 FM1 Upper Stage - Pass Details

Date: 24 January 2026
Orbit: 522 x 609 km, 62.0° (Epoch: 6 February)

Event Time Altitude Azimuth Distance (km) Brightness Sun altitude
Rises 23:55:55 0° 235° (SW) 2,713 7.2 -21.3°
Reaches altitude 10° 23:58:15 10° 243° (WSW) 1,809 6.2 -21.7°
Maximum altitude 00:02:04 39° 313° (NW) 820 3.7 -22.4°
Enters shadow 00:03:21 30° 355° (N) 980 3.8 -22.7°
